Little Birch, West Virginia
Current Conditions -  °F | °C
As of 7:15 PM on Saturday 20 Dec 2014 (Local Time) from KW22 Reporting Station
Overcast Overcast  
Wind Chill: 30°   Ceiling: 3500
Heat Index: 30°   Visibility: 10mi
Dew Point: 23°   Wind: 0mph
Humidity: 75%   Direction: NA
Pressure: 30.22"   Gusts: NA
Location:  38.58°N, 80.71°W
Report Text: KW22 210015Z AUTO 00000KT 10SM OVC035 M01/M05 A3022 RMK AO2
Loading
Personal Weather Stations






























Interactive Weather Map New forecast layout! Learn more

10-Day Weather Forecast

Advertisements
Track Severe Weather on mobile